Regional Weather Roundup
Issued by NWS Charleston, SC

Current Version | Previous Version | Graphics & Text | Print | Product List | Glossary On
Versions: 1 2 3 4 5 6 7 8 9 10 11 12 13 14 15 16 17 18 19 20 21 22 23 24 25 26 27 28 29 30 31 32 33 34 35 36 37 38 39 40 41 42 43 44 45 46 47 48 49 50
000 ASUS42 KCHS 270212 RWRCHS REGIONAL WEATHER ROUNDUP NATIONAL WEATHER SERVICE CHARLESTON SC 1000 PM EDT SUN MAR 26 2017 NOTE: "FAIR" INDICATES FEW OR NO CLOUDS BELOW 12,000 FEET WITH NO SIGNIFICANT WEATHER AND/OR OBSTRUCTIONS TO VISIBILITY. NOT ALL STATIONS ARE QUALITY CONTROLLED. USE DATA WITH CAUTION... ESPECIALLY DEWPOINT OBSERVATIONS. SCZ027-030-031-034>040-042>050-270300- ...SOUTHEAST SOUTH CAROLINA... CITY SKY/WX TMP DP RH WIND PRES REMARKS N CHARLESTON PTCLDY 64 56 75 SE7 30.17R WATERFRONT PRK N/A 66 60 81 S7 30.15R JOHNS ISLAND FAIR 68 59 73 SE5 30.17R PINOPOLIS N/A 68 59 73 CALM 30.07R MONCKS CORNER CLOUDY 66 55 68 CALM 30.17R SUMMERVILLE FAIR 66 57 72 CALM 30.17R BEAUFORT MCAS CLEAR 67 63 87 CALM 30.17R BEAUFORT ARPT FAIR 64 61 88 S5 30.16R HILTON HEAD IS CLEAR 64 63 94 S5 30.17R WALTERBORO CLEAR 64 59 82 SE5 30.17R ALLENDALE FAIR 66 59 77 SE7 30.14R ...SOUTHERN MIDLANDS AND PEE DEE... CITY SKY/WX TMP DP RH WIND PRES REMARKS GEORGETOWN FAIR 59 57 94 CALM 30.19R KINGSTREE CLOUDY 66 54 63 SE7 30.17R ORANGEBURG CLEAR 64 57 78 SE7 30.15R BARNWELL FAIR 68 59 73 SE9 30.14R AIKEN FAIR 64 57 77 SE9 30.16R MANNING FAIR 64 55 72 S3 30.16R COLUMBIA PTCLDY 69 57 65 SE9 30.12R SUMTER CLEAR 67 55 66 SE8 30.13R FLORENCE PTCLDY 66 57 72 SE9 30.17R MYRTLE BEACH CLEAR 64 59 82 SE17 30.19R N MYRTLE BEACH CLEAR 66 58 75 S7 30.18R $$ GAZ063-065-086>088-099>101-113>116-118-119-134>141-150-270300- ...SOUTHEAST GEORGIA... CITY SKY/WX TMP DP RH WIND PRES REMARKS SAVANNAH ARPT CLEAR 66 58 75 SE8 30.16R HUNTER AAF CLEAR 65 62 89 SE6 30.14R FORT STEWART CLEAR 63 58 84 E5 30.12R STATESBORO CLOUDY 69 61 76 SE6 30.14R SYLVANIA PTCLDY N/A N/A N/A S3 30.15R CLAXTON CLOUDY N/A N/A N/A E5 30.14R ...CSRA...CENTRAL AND FAR SOUTHEAST GEORGIA... CITY SKY/WX TMP DP RH WIND PRES REMARKS THOMSON PTCLDY 69 58 67 SW8 30.15R AUGUSTA-BUSH CLEAR 70 59 68 SE10 30.11R AUGUSTA-DANIEL CLEAR 70 56 61 SE10 30.12R SWAINSBORO FAIR 70 59 68 SE9 30.13R VIDALIA PTCLDY 70 59 68 SE8 30.13R EASTMAN FAIR 70 49 46 CALM 30.12R HAZLEHURST FAIR 71 60 67 SE7 30.11R ALMA CLEAR 69 60 73 SE7 30.12R WAYCROSS CLEAR 71 63 75 SE8 30.13R JESUP FAIR 66 59 77 SE3 30.14R BAXLEY FAIR 70 63 78 SE7 30.12R BRUNSWICK CLEAR 68 63 83 SE5 30.16R SAINT SIMONS CLEAR 66 61 84 SE9 30.14R $$ SCZ027-028-034-036>038-045-046-048>050-GAZ119-141-270300- ...LAKE AND SUPPLEMENTAL COASTAL OBSERVATIONS... STATION/POSITION TIME TEMP WIND PRES WAVE SWELL AIR SEA DIR/SP/G HT/PER HT/PER/DIR (UTC) (F) (DEG/KT/KT) (MB) (FT/S) (FT/S/D) WINYAH BAY 0045 64 140/ 6 1021.0 LAKE MURRAY 0120 68 150/ 10/ 12 1019.3 ACE BASIN NERRS NOT AVBL FORT PULASKI 0136 65 63 150/ 3/ 5 1021.4R SAPELO ISLAND 0100 65 130/ 5 1020.0 $$ ANZ835-935-AMZ111-154-330-350-352-354-370-450-454-472-270300- ...C-MAN AND BUOY OBSERVATIONS... STATION/POSITION TIME TEMP WIND PRES WAVE SWELL AIR SEA DIR/SP/G HT/PER HT/PER/DIR (UTC) (F) (DEG/KT/KT) (MB) (FT/S) (FT/S/D) BUOY 41004 0150 72 74 140/ 14/ 16 1021.4R 4/ 7 3/130/ 7 BUOY 41008 0150 65 63 140/ 10/ 12 1020.6R 4/ 9 3/110/ 9 FOLLY BEACH CMAN 0200 65 150/ 8/ 9 1022.1R CAPERS NEARSHORE NOT AVBL FRIPP NEARSHORE 0108 63 61 150/ 4/ 6 1020.6R STATION/POSITION TIME TEMP WIND PRES WAVE SWELL AIR SEA DIR/SP/G HT/PER HT/PER/DIR (UTC) (F) (DEG/KT/KT) (MB) (FT/S) (FT/S/D) 5E ST. MARYS GA 0130 66 N/A 3/ 9 2/110/11 FRYING PAN BUOY 0150 71 76 140/ 12/ 17 1022.5R 4/10 3/150/10 BUOY 41025 0150 70 76 160/ 12/ 14 1024.0R 4/ 9 3/120/ 9 CAPE LOOKOUT NC 0200 67 140/ 11/ 12 1022.9R BUOY 41002 0150 69 72 100/ 12/ 14 1023.4R 5/ 9 5/130/ 9 BUOY 41010 NOT AVBL ST AUGUSTINE FL 0200 68 70 130/ 6/ 6 1021.6R $$

USA.gov is the U.S. government's official web portal to all federal, state and local government web resources and services.